This demonstration page uses our WeatherBlox Daily Observations layout. Learn more.

41.86663, -103.66717

Hourly Observations for June 14, 2019

Temp ( °F °C ) Dew Point ( °F °C ) Humidity (%) Winds ( mph kmh ) Pressure ( in mb ) Visibility ( mi km ) Precip ( " mm )
12:53 am 00:53 Clear 55 12.8 54 12.2 96 96 ESE 3 6 29.72 1006 10 16.0934 0 0
1:53 am 01:53 Clear 53 11.7 53 11.7 100 100 NNE 7 11 29.71 1006 10 16.0934 0 0
2:53 am 02:53 Clear 54 12.2 53 11.7 97 97 NE 7 11 29.72 1006 10 16.0934 0 0
3:53 am 03:53 Clear 52 11.1 52 11.1 100 100 WNW 6 9 29.7 1006 10 16.0934 0 0
4:53 am 04:53 Clear 53 11.7 52 11.1 96 96 WNW 6 9 29.72 1006 10 16.0934 0 0
5:53 am 05:53 Sunny 52 11.1 51 10.6 97 97 Calm 29.74 1007 10 16.0934 0 0
6:53 am 06:53 Sunny 57 13.9 55 12.8 93 93 Calm 29.73 1007 10 16.0934 0 0
7:53 am 07:53 Sunny 64 17.8 58 14.4 81 81 WNW 6 9 29.72 1007 10 16.0934 0 0
8:53 am 08:53 Sunny 69 20.6 59 15 70 70 W 9 15 29.72 1007 10 16.0934 0 0
9:53 am 09:53 Sunny 72 22.2 58 14.4 61 61 WNW 12 19 29.71 1006 10 16.0934 0 0
10:53 am 10:53 Sunny 73 22.8 57 13.9 57 57 W 9 15 29.72 1006 10 16.0934 0 0
11:53 am 11:53 Sunny 79 26.1 63 17.2 58 58 W 9 15 29.69 1006 10 16.0934 0 0
12:53 pm 12:53 Sunny 77 25 61 16.1 58 58 W 12 19 29.7 1006 10 16.0934 0 0
1:53 pm 13:53 Sunny 81 27.2 64 17.8 57 57 NW 14 22 29.67 1005 10 16.0934 0 0
2:53 pm 14:53 Sunny 83 28.3 67 19.4 59 59 NW 12 19 29.66 1004 10 16.0934 0 0
3:53 pm 15:53 Sunny 85 29.4 69 20.6 59 59 NW 10 17 29.65 1004 10 16.0934 0 0
4:53 pm 16:53 Sunny 81 27.2 67 19.4 62 62 NW 10 17 29.65 1004 10 16.0934 0 0
5:53 pm 17:53 Sunny 82 27.8 66 18.9 58 58 WNW 9 15 29.64 1004 10 16.0934 0 0
6:40 pm 18:40 Mostly Cloudy with Nearby Thunderstorms 72 22.2 54 12.2 53 53 W 22 35 29.56 1001 10 16.0934 0 0
6:53 pm 18:53 Cloudy with Nearby Thunderstorms 71 21.7 54 12.2 55 55 WSW 23 37 29.68 1005 10 16.0934 0 0.0254
7:01 pm 19:01 Windy with Storms Likely 68 20 55 13 64 64 W 23 37 29.62 1003 7 11.26538 0 0
7:07 pm 19:07 Cloudy with Heavy Thunderstorms 65 18.3 57 13.9 76 76 SSW 13 20 29.65 1004 1.75 2.816345 0.07 1.778
7:15 pm 19:15 Cloudy with Heavy Thunderstorms 64 18 59 15 83 83 SW 15 24 29.66 1004 3 4.82802 0 0
7:23 pm 19:23 Cloudy with Light Thunderstorms 64 17.8 58 14.4 81 81 SW 13 20 29.65 1004 1 1.60934 0.16 4.064
7:28 pm 19:28 Cloudy with Light Thunderstorms 64 17.8 58 14.4 81 81 S 7 11 29.65 1004 5 8.0467 0.16 4.064
7:53 pm 19:53 Cloudy with Light Thunderstorms 65 18.3 57 13.9 76 76 WNW 13 20 29.73 1007 10 16.0934 0.17 4.318
8:20 pm 20:20 Partly Cloudy with Nearby Thunderstorms 61 16.1 57 13.9 87 87 NW 15 24 29.72 1006 10 16.0934 0 0.0254
8:29 pm 20:29 Sunny 61 16 57 14 88 88 NNW 15 24 29.72 1006 10 16.0934 0 0
8:53 pm 20:53 Mostly Cloudy with Light Rain 62 16.7 59 15 90 90 NNW 28 44 29.73 1007 8 12.87472 0 0.0254
9:00 pm 21:00 Mostly Cloudy with Nearby Thunderstorms 62 16.7 59 15 90 90 N 30 48 29.69 1005 7 11.26538 0 0.0254
9:15 pm 21:15 Cloudy with Light Rain 63 17.2 58 14.4 84 84 N 22 35 29.69 1005 10 16.0934 0.01 0.254
9:53 pm 21:53 Cloudy with Light Rain 62 16.7 59 15 90 90 NW 10 17 29.75 1008 10 16.0934 0.01 0.254
10:53 pm 22:53 Clear 60 15.6 59 15 96 96 SW 8 13 29.76 1008 10 16.0934 0 0.0254

Powered by AerisWeather